Change the Weather History Date:

Friday, January 18, 2013

  Actual Average Record
Temperature  
Mean Temperature 37 °F -  
Max Temperature 41 °F 44 °F 54 °F (2005)
Min Temperature 33 °F 36 °F 19 °F (2012)
Degree Days  
Heating Degree Days 28    
Moisture  
Dew Point 35 °F    
Average Humidity 93    
Maximum Humidity 100    
Minimum Humidity 82    
Precipitation  
Precipitation 0.00 in - - ()
Sea Level Pressure  
Sea Level Pressure 30.32 in    
Wind  
Wind Speed 1 mph (North)    
Max Wind Speed 6 mph    
Max Gust Speed -    
Visibility 6 miles    
Events Fog    
Averages and records for this station are not official NWS values.
T = Trace of Precipitation, MM = Missing Value Source: NWS Daily Summary

Daily Weather History Graph

Daily Weather History Graph

Search for Another Location

Airport or City:

Trip Planner

Search our weather history database for the weather conditions in past years. The results will help you decide how hot, cold, wet, or windy it might be!

Date:

Astronomy

Jan. 18, 2013 Rise Set
Actual Time 7:56 AM PST 4:49 PM PST
Civil Twilight 7:21 AM PST 5:24 PM PST
Nautical Twilight 6:42 AM PST 6:03 PM PST
Astronomical Twilight 6:05 AM PST 6:40 PM PST
Moon 10:56 AM PST (1/18) 12:24 AM PST (1/18)
Length of Visible Light 10h 03m
Length of Day
8h 53m
Waxing Crescent, 48% of the Moon is Illuminated
Jan 18
Waxing Crescent
Jan 18
First Quarter
Jan 26
Full
Feb 3
Last Quarter
Feb 9
New

Hourly Weather History & Observations

Time (PST) Temp. Windchill Dew Point Humidity Pressure Visibility Wind Dir Wind Speed Gust Speed Precip Events Conditions
12:53 AM 35.1 °F - 34.0 °F 96% 30.30 in 0.2 mi Calm Calm - N/A Fog Fog
1:53 AM 35.1 °F - 35.1 °F 100% 30.31 in 0.5 mi Calm Calm - N/A Fog Fog
2:53 AM 35.1 °F - 35.1 °F 100% 30.30 in 0.5 mi Calm Calm - N/A Fog Fog
3:53 AM 35.1 °F - 34.0 °F 96% 30.30 in 0.8 mi Calm Calm - N/A   Mist
4:31 AM 33.8 °F - 33.8 °F 100% 30.29 in 1.0 mi Calm Calm - N/A   Mist
4:53 AM 35.1 °F - 34.0 °F 96% 30.30 in 1.0 mi Calm Calm - N/A   Overcast
5:31 AM 35.6 °F 32.8 °F 33.8 °F 93% 30.29 in 2.5 mi SW 3.5 mph - N/A   Overcast
5:49 AM 33.8 °F - 33.8 °F 100% 30.29 in 3.0 mi Calm Calm - N/A   Overcast
5:53 AM 34.0 °F - 34.0 °F 100% 30.29 in 3.0 mi Calm Calm - N/A   Overcast
6:44 AM 35.6 °F - 33.8 °F 93% 30.28 in 1.8 mi Calm Calm - N/A   Overcast
6:53 AM 35.1 °F - 34.0 °F 96% 30.29 in 1.8 mi Calm Calm - N/A   Overcast
7:03 AM 35.6 °F - 33.8 °F 93% 30.28 in 2.5 mi Calm Calm - N/A   Overcast
7:10 AM 35.6 °F 32.8 °F 33.8 °F 93% 30.28 in 6.0 mi NNE 3.5 mph - N/A   Overcast
7:53 AM 35.1 °F - 34.0 °F 96% 30.30 in 9.0 mi Calm Calm - N/A   Overcast
8:53 AM 36.0 °F - 35.1 °F 97% 30.32 in 8.0 mi Calm Calm - N/A   Overcast
9:15 AM 37.4 °F - 35.6 °F 93% 30.31 in 9.0 mi Calm Calm - N/A   Overcast
9:53 AM 37.9 °F - 36.0 °F 93% 30.33 in 10.0 mi Calm Calm - N/A   Overcast
10:53 AM 39.0 °F - 36.0 °F 89% 30.33 in 10.0 mi Calm Calm - N/A   Overcast
11:53 AM 39.9 °F 35.8 °F 36.0 °F 86% 30.34 in 9.0 mi North 5.8 mph - N/A   Overcast
12:53 PM 41.0 °F - 36.0 °F 82% 30.32 in 8.0 mi Calm Calm - N/A   Mostly Cloudy
1:53 PM 41.0 °F 39.0 °F 36.0 °F 82% 30.32 in 7.0 mi North 3.5 mph - N/A   Overcast
2:53 PM 39.9 °F 36.7 °F 35.1 °F 83% 30.32 in 8.0 mi North 4.6 mph - N/A   Overcast
3:53 PM 39.9 °F 37.8 °F 35.1 °F 83% 30.34 in 9.0 mi North 3.5 mph - N/A   Overcast
4:53 PM 39.0 °F - 34.0 °F 82% 30.33 in 10.0 mi Calm Calm - N/A   Overcast
5:53 PM 37.9 °F - 34.0 °F 86% 30.32 in 10.0 mi Calm Calm - N/A   Overcast
6:53 PM 36.0 °F - 34.0 °F 93% 30.33 in 10.0 mi Calm Calm - N/A   Overcast
7:53 PM 37.0 °F - 35.1 °F 93% 30.33 in 10.0 mi Calm Calm - N/A   Overcast
8:53 PM 35.1 °F - 34.0 °F 96% 30.35 in 10.0 mi Calm Calm - N/A   Mostly Cloudy
9:53 PM 34.0 °F - 33.1 °F 96% 30.36 in 9.0 mi Calm Calm - N/A   Overcast
10:53 PM 35.1 °F - 35.1 °F 100% 30.36 in 8.0 mi Calm Calm - N/A   Overcast
11:53 PM 36.0 °F - 35.1 °F 97% 30.37 in 8.0 mi Calm Calm - N/A   Unknown